This is the latest recevied weather packets stored in our database for station/object KQ4WWD. If no packets are shown the sender has not sent any weather packets the latest 10 day(s).
| Time | Temp. | Humidity | Pressure | Rain* | Wind** | Luminosity | Snow |
|---|---|---|---|---|---|---|---|
| 1777642444 | 25.56° C | 79% | 1011.8 hPa | 0 mm | - | 435 W/m² | - |
| 1777642140 | 25.56° C | 81% | 1012 hPa | 0 mm | - | 191 W/m² | - |
| 1777641836 | 25.56° C | 82% | 1012.1 hPa | 0 mm | - | 276 W/m² | - |
| 1777641532 | 25.56° C | 82% | 1012.1 hPa | 0 mm | - | 247 W/m² | - |
| 1777641226 | 25° C | 83% | 1012 hPa | 0 mm | - | 256 W/m² | - |
| 1777640924 | 25° C | 83% | 1012.1 hPa | 0 mm | - | 192 W/m² | - |
| 1777640621 | 25° C | 84% | 1012.1 hPa | 0 mm | - | 361 W/m² | - |
| 1777640316 | 24.44° C | 85% | 1012.1 hPa | 0 mm | - | 234 W/m² | - |
| 1777640013 | 24.44° C | 85% | 1011.9 hPa | 0 mm | - | 203 W/m² | - |
| 1777639711 | 24.44° C | 86% | 1012.1 hPa | 0 mm | - | 184 W/m² | - |
| 1777639409 | 23.89° C | 87% | 1011.8 hPa | 0 mm | - | 264 W/m² | - |
| 1777639108 | 23.89° C | 88% | 1012.1 hPa | 0 mm | - | 202 W/m² | - |
| 1777638807 | 23.89° C | 88% | 1012.1 hPa | 0 mm | - | 150 W/m² | - |
| 1777638507 | 23.33° C | 89% | 1012.1 hPa | 0 mm | - | 160 W/m² | - |
| 1777638204 | 23.33° C | 91% | 1011.9 hPa | 0 mm | - | 167 W/m² | - |
| 1777637900 | 22.78° C | 92% | 1011.7 hPa | 0 mm | - | 200 W/m² | - |
| 1777637596 | 22.78° C | 93% | 1012 hPa | 0 mm | - | 146 W/m² | - |
| 1777637293 | 22.22° C | 93% | 1012 hPa | 0 mm | - | 109 W/m² | - |
| 1777636990 | 22.22° C | 93% | 1012.1 hPa | 0 mm | - | 82 W/m² | - |
| 1777636685 | 22.22° C | 93% | 1011.9 hPa | 0 mm | - | 69 W/m² | - |
| 1777636383 | 22.22° C | 93% | 1011.6 hPa | 0 mm | - | 66 W/m² | - |
| 1777636082 | 22.22° C | 93% | 1011.8 hPa | 0 mm | - | 55 W/m² | - |
| 1777635778 | 22.22° C | 94% | 1011.6 hPa | 0 mm | - | 46 W/m² | - |
| 1777635475 | 22.22° C | 94% | 1011.7 hPa | 0 mm | - | 37 W/m² | - |
| 1777635172 | 22.22° C | 94% | 1011.7 hPa | 0 mm | - | 31 W/m² | - |
* Rain latest hour (hover to see other rain measurements)
** Current wind speed in m/s (hover to see current wind gust speed)